Zurück zum Katalog

STARLINK-35236

AktivKommunikationVLEO
NORAD 66008·PAYLOAD·🇺🇸 United States

Gestartet Oct 16, 2025 von Cape Canaveral Space Force Station

Loading…

Nächste Überflüge (nächste 24 Stunden)

TLE

AktuellSource: CelesTrak SupGP

Epoche: Sep 15, 2026, 03:19 UTC

1 66008C 25232D   26258.13868056  .00018614  00000+0  54990-3 0  2581
2 66008  53.1591 300.6930 0001371  84.0900  29.4813 15.34383894    16

Verfolge STARLINK-35236 in Echtzeit mit AllMySat

Download on the App Store